COSMOS 1536 (14699 NORAD) Tracking and Keplerian Element Data

This shows tracking and keplerian element data for the satellite.

Feedback or suggestion? Click here.




ElementValue
Catalog14699
NameCOSMOS 1536
Epoch Orbit21199
Epoch Day34.76967263
Epoch Year2025
RAAN142.3794
Inclination82.5496
Eccentricity0.0016388
Argument of Perigee233.2134
Mean Anonmoly126.7597
Mean Motion15.17308618
Decay Rate0.00011741
L11 14699U 84013A 25034.76967263 .00011741 00000+0 58535-3 0 9997
L22 14699 82.5496 142.3794 0016388 233.2134 126.7597 15.17308618211998



Live tracking and technical data element details for COSMOS 1536 (NORAD 14699). COSMOS 1536 can be tracked NOW for your location showing map with azimuth and elevation plus other details from your city location.







IsCatalogInMostPopularTable: catalog: 14699, numindb: 363
Update: records affected: 1



GetName: 14699 COSMOS 1536

Hit Count: updated at: Thu, 15 May 2025 10:24:29 GMT